Location: Unspecified
(41.1637°N, 24.2901°E)
Time: 21:09:52
(UTC+01:00)

Tiangong - Visible Passes

Search period start: 19 January 2022 00:00
Search period end: 29 January 2022 00:00
Orbit: 383 x 386 km, 41.5° (Epoch: 19 January)

Date Brightness Start Highest point End Pass type
(mag) Time Alt. Az. Time Alt. Az. Time Alt. Az.
25 Jan 3.6 18:12:44 10° S 18:13:36 13° S 18:13:36 13° S visible
26 Jan 3.9 18:48:22 10° SW 18:49:09 16° SW 18:49:09 16° SW visible
27 Jan 2.5 17:49:01 10° SSW 17:51:39 24° SSE 17:52:23 22° SE visible
28 Jan 2.0 18:25:19 10° WSW 18:27:45 44° SW 18:27:45 44° SW visible
